Location: M.A.R.S.Observatory
(35.4031°N, 81.5481°W)
Time: 07:04:41
(UTC-04:00)

Daily predictions for brighter satellites

Satellite Brightness Start Highest point End
(mag) Time Altitude Azimuth Time Altitude Azimuth Time Altitude Azimuth
Cosmos 1420 Rocket 4.0 21:11:14 10° NNW 21:16:25 73° ENE 21:21:35 10° SSE
Cosmos 1452 Rocket 3.6 21:12:41 10° NNW 21:18:00 86° ENE 21:23:17 10° SSE
Cosmos 1812 Rocket 3.6 21:15:04 10° N 21:19:25 84° W 21:23:48 10° S
Resurs 1-3 3.6 21:15:36 10° SSE 21:19:56 67° ENE 21:24:18 10° N
ATLAS 3B R/B 4.2 21:15:57 10° N 21:20:54 22° NE 21:25:47 10° E
Lacrosse 5 3.2 21:16:05 10° WSW 21:20:56 45° NW 21:25:49 10° NNE
Cosmos 1939 Rocket 3.0 21:17:22 10° S 21:21:27 78° W 21:25:29 10° NNW
ARGOS 4.4 21:18:05 10° ESE 21:22:29 26° ENE 21:26:54 10° NNE
Cosmos 1943 4.2 21:19:06 10° NW 21:24:29 46° WSW 21:29:48 10° S
Cosmos 2278 Rocket 3.7 21:22:07 10° SE 21:25:25 16° E 21:28:44 10° ENE
Cosmos 1953 Rocket 3.9 21:21:20 10° SSE 21:25:28 45° E 21:29:39 10° NNE
Cosmos 1932 4.5 21:23:59 10° NNW 21:30:13 90° WSW 21:36:24 10° SSE
Cosmos 1758 Rocket 3.6 21:26:00 10° S 21:30:25 67° E 21:34:48 10° NNE
Cosmos 1315 Rocket 2.9 21:33:50 10° S 21:37:52 88° W 21:42:00 10° N
Cosmos 1844 Rocket 2.7 21:33:28 10° SSW 21:39:07 78° ESE 21:44:47 10° NNE
YAOGAN 6 4.4 21:37:39 10° SSW 21:40:46 29° W 21:43:53 10° NW
Aurora 2 Rocket 4.2 21:36:24 10° SW 21:41:13 31° S 21:47:01 12° ESE
Cosmos 494 Rocket 4.2 21:36:18 10° S 21:41:20 51° ESE 21:46:27 10° NNE
NOAA 11 4.2 21:39:43 10° SSE 21:45:08 84° WSW 21:50:35 10° NNW
Cosmos 921 Rocket 3.9 21:41:49 10° N 21:45:57 35° ENE 21:48:58 16° SE
Cosmos 1461 3.9 21:44:24 10° S 21:48:24 31° ESE 21:52:32 10° NE
Cosmos 1844 3.7 21:43:04 10° SSW 21:48:43 71° ESE 21:54:27 10° NNE
COSMOS 2406 4.2 21:44:20 10° N 21:49:30 33° ENE 21:53:24 16° ESE
Resurs 01 Rocket 2.2 21:46:09 10° S 21:50:29 56° W 21:54:51 10° NNW
Cosmos 1269 Rocket 4.4 21:45:50 10° SSW 21:51:06 69° WNW 21:56:25 10° NNE
H-2A R/B 2.8 21:47:32 15° SE 21:51:27 38° ENE 21:56:25 10° N
SAR-Lupe-3 4.4 21:48:02 10° NNE 21:51:38 79° ESE 21:55:11 10° S
ATLAS 2AS CENTAUR R/B 3.3 21:44:01 10° SW 21:51:43 75° WNW 21:59:52 10° NNE
Cosmos 1825 Rocket 4.4 21:49:54 10° SSW 21:54:15 52° W 21:58:36 10° N
ATLAS 5 CENTAUR R/B 2.9 21:53:56 18° ESE 21:54:40 19° ESE 21:57:50 10° ENE
Iridium 4 Rocket 3.9 21:53:42 10° S 21:59:20 73° W 22:04:34 10° N
Cosmos 1437 2.6 21:57:01 10° N 22:00:12 77° E 22:02:07 22° SSE
OAO 3 Rocket 3.2 21:55:47 10° W 22:00:46 81° S 22:04:34 17° ESE
SEDSat Delta rocket 3.9 21:57:41 10° SW 22:02:49 38° SSE 22:05:50 19° ESE
Cosmos 220 Rocket 4.1 22:03:07 12° S 22:06:51 50° ESE 22:10:56 10° NNE
Terra 4.0 22:07:01 10° E 22:08:36 12° ENE 22:10:11 10° NE
ERS-1 Rocket 3.6 22:06:44 21° SE 22:09:32 39° ENE 22:14:12 10° N
Cosmos 1346 Rocket 2.7 22:05:30 10° N 22:09:33 86° E 22:12:14 21° S
Meteor 1-24 Rocket 4.2 22:04:51 10° SSW 22:10:50 69° W 22:16:51 10° N
OE (NEXTSAT) 4.5 22:11:53 10° WNW 22:15:24 64° SW 22:16:40 35° SSE
Cosmos 2082 Rocket 4.4 22:13:35 10° NNE 22:15:39 12° NE 22:17:42 10° ENE
USA 215 3.3 22:14:20 21° SE 22:18:57 86° SW 22:25:33 10° NW
Cosmos 1244 Rocket 4.5 22:12:53 10° N 22:19:16 87° E 22:24:16 17° S
Iridium 81 3.4 22:20:50 71° SE 22:21:00 76° E 22:23:48 10° N
Cosmos 1745 Rocket 4.4 22:15:39 10° N 22:21:40 45° E 22:24:48 26° SE
Cosmos 2084 3.8 22:19:11 10° NW 22:22:54 48° WSW 22:24:40 27° S
Cosmos 1340 3.1 22:20:18 10° N 22:23:56 43° E 22:24:49 36° ESE
Cosmos 1908 3.1 22:20:13 10° N 22:24:06 82° E 22:25:48 32° SSE
MetOp-B 4.1 22:22:43 23° SSE 22:26:06 83° ENE 22:31:29 10° N
DMSP B5D2-2 4.2 22:21:04 10° NNE 22:26:12 55° E 22:29:09 25° S
PSLV R/B 3.1 22:23:27 10° SW 22:26:16 53° S 22:26:16 53° S
NOSS 2-2 (E) 3.6 22:26:04 38° SE 22:26:38 41° ESE 22:30:29 10° NE
Cosmos 2251 Rocket 3.5 22:22:00 12° S 22:26:59 69° ESE 22:32:16 10° NNE
NOSS 3-4 (A) 3.3 22:23:18 10° SSW 22:29:23 68° ESE 22:35:39 10° NE
NOSS 3-4 (C) 3.4 22:23:24 10° SSW 22:29:28 67° ESE 22:35:43 10° NE
Cosmos-2242 3.7 22:27:12 10° NNW 22:31:30 53° W 22:34:29 19° SSW
H-2A R/B (2) 4.2 22:30:00 21° SSE 22:33:21 27° SE 22:55:44 10° E
SL-08 RB Rocket 3.8 22:33:08 28° S 22:35:36 78° WSW 22:40:18 10° NNW
Cosmos 1674 3.8 22:32:33 11° SSW 22:36:01 43° W 22:39:42 10° N
Meteor 2-10 4.1 22:31:11 10° N 22:36:41 72° E 22:39:22 32° SSE
Helios 1A 3.6 22:37:59 36° ESE 22:38:48 41° ENE 22:42:46 10° N
Helios 1B rocket 3.2 22:35:21 10° NNE 22:38:53 33° E 22:38:53 33° E
Cosmos 1726 2.2 22:41:11 10° N 22:44:56 76° W 22:45:50 49° SSW
S3M 4.1 22:40:34 16° S 22:45:47 83° W 22:52:13 10° N
Cosmos 1300 3.2 22:42:41 10° N 22:46:19 41° E 22:46:20 41° E
CSL-04 DEB 4.2 22:48:06 55° SSE 22:48:55 90° S 22:52:52 10° NNW
APEX 3.1 22:48:53 10° NNW 22:52:15 68° ENE 22:52:30 65° E
Cosmos 1842 Rocket 3.5 22:51:33 10° N 22:55:55 85° W 22:56:56 53° S
CZ-2C R/B 4.2 22:54:27 30° ESE 22:56:03 35° ENE 23:01:13 10° N
SPOT 5 3.0 22:54:57 45° SSE 22:56:32 75° ENE 23:01:48 10° N
NOSS 2-2 (D) 3.1 22:57:20 70° S 22:57:42 80° ESE 23:01:48 10° NNE
RESURS DK-1 3.5 23:03:43 31° ENE 23:03:43 31° ENE 23:06:18 10° NE
ARGOS 4.4 22:58:59 17° SSW 23:02:31 35° W 23:07:28 10° NNW
Cosmos 2278 Rocket 2.7 23:03:21 10° SW 23:08:54 58° WNW 23:14:31 10° NNE
ATLAS 3B R/B 2.6 23:05:36 10° NW 23:12:10 73° WSW 23:14:24 43° S
Cosmos 1328 4.2 23:14:45 52° NE 23:14:45 52° NE 23:17:59 10° NNE
USA 238 DEB 4.3 23:12:12 10° NW 23:19:04 50° WSW 23:21:54 33° SSW
USA 238 4.3 23:12:18 10° NW 23:19:09 50° WSW 23:21:59 34° SSW
Cosmos 2221 2.4 23:16:52 10° N 23:21:11 87° W 23:21:11 87° W
Spot 1 4.2 23:21:12 64° ENE 23:21:12 64° ENE 23:25:44 10° N
Cosmos 883 Rocket 4.5 23:19:20 37° SSW 23:21:57 78° W 23:28:13 10° N
NOSS 2-2 (C) 4.1 23:22:43 35° WSW 23:23:54 49° NW 23:27:56 10° NNE
SL-27 R/B 4.4 23:22:28 10° N 23:24:32 23° NE 23:24:32 23° NE
Landsat 7 3.9 23:25:42 61° SW 23:26:16 68° WSW 23:31:01 10° NNW
Okean 3 Rocket 3.5 23:27:16 75° NE 23:27:16 75° NE 23:31:20 10° N
NOSS 3-2 (A) 4.2 23:22:30 10° NW 23:30:14 70° WSW 23:33:11 43° S
SPOT 1/Viking Rocket 4.0 23:29:41 43° SW 23:30:47 51° W 23:35:48 10° NNW
H-2A R/B 4.0 23:28:09 15° SW 23:30:56 23° W 23:35:07 10° NW
Cosmos 2315 Rocket 3.9 23:29:38 48° S 23:31:34 87° W 23:37:58 10° N
Aureole 3 Rocket 4.1 23:31:28 43° S 23:34:10 87° E 23:39:58 10° N
Cosmos 2369 Rocket 4.3 23:39:36 12° ENE 23:39:36 12° ENE 23:40:28 10° ENE
ATLAS 5 CENTAUR R/B 3.0 23:35:18 13° WSW 23:38:54 37° NW 23:43:21 10° NNE
IGS 5A 4.0 23:40:24 55° WNW 23:40:24 55° WNW 23:44:06 10° NNW
Cosmos 1626 3.5 23:44:59 37° WNW 23:44:59 37° WNW 23:47:59 10° N
Terra 1.9 23:45:46 66° W 23:45:46 66° W 23:50:28 10° NNW
